FW4110 Weather Reports


Display with metric or nautical units.
time (UTC)temp
F
wind
direction
speed
MPH
gust
MPH
rain 1hr
in
rain 24hr
in
rain mn
in
humidity
%
barometer
mb
20260505230036 46 346 3.0 9.0 0.02 0.12 0.12 85 1013.1
20260505224534 47 20 4.0 9.0 0.04 0.11 0.11 85 1012.0
20260505223030 47 355 2.0 4.0 0.04 0.11 0.11 84 1012.0
20260505221529 47 337 0.0 2.0 0.04 0.11 0.11 84 1012.2
20260505220026 48 359 1.0 5.0 0.03 0.10 0.10 83 1012.0
20260505214525 48 31 0.0 9.0 0.00 0.07 0.07 82 1012.2
20260505213023 48 55 5.0 10.0 0.00 0.07 0.07 80 1012.0
20260505211519 48 40 3.0 9.0 0.00 0.07 0.07 81 1012.3
20260505210116 48 78 4.0 9.0 0.00 0.07 0.07 80 1012.1
20260505204523 48 44 2.0 7.0 0.00 0.07 0.07 80 1012.6
20260505203012 48 46 2.0 8.0 0.00 0.07 0.07 79 1012.7
20260505201510 49 32 4.0 9.0 0.00 0.07 0.07 75 1013.0
20260505200019 49 36 3.0 10.0 0.00 0.07 0.07 73 1012.4
20260505194507 49 354 4.0 13.0 0.00 0.08 0.07 73 1013.2
20260505193009 50 57 4.0 13.0 0.00 0.08 0.07 69 1013.2
20260505191503 51 12 8.0 18.0 0.00 0.08 0.07 67 1013.1
20260505190107 52 334 6.0 12.0 0.00 0.08 0.07 67 1012.7
20260505184557 53 45 5.0 15.0 0.00 0.08 0.07 66 1012.4
20260505183055 53 59 4.0 12.0 0.00 0.08 0.07 68 1012.1
20260505181552 52 40 3.0 10.0 0.00 0.08 0.07 69 1012.5
20260505180049 52 17 3.0 9.0 0.00 0.08 0.07 71 1012.4
20260505174549 52 61 2.0 8.0 0.00 0.08 0.07 72 1013.2
20260505173049 53 340 3.0 9.0 0.00 0.08 0.07 71 1013.5
20260505171542 54 51 3.0 8.0 0.00 0.08 0.07 68 1012.7
20260505170041 54 63 3.0 7.0 0.00 0.08 0.07 63 1012.6
20260505164540 55 39 4.0 8.0 0.00 0.08 0.07 61 1012.8
20260505163035 57 24 1.0 9.0 0.00 0.08 0.07 61 1011.9
20260505161534 56 140 1.0 8.0 0.00 0.08 0.07 64 1011.7
20260505153026 53 56 4.0 8.0 0.00 0.08 0.07 82 1012.0
20260505151523 51 121 1.0 8.0 0.00 0.08 0.07 89 1011.9
20260505124604 0 0.0 0.0 0.00 0.07 0.06 1010.2
20260505123053 0 0.0 0.0 0.00 0.07 0.06 1011.8
20260505121547 0 0.0 0.0 0.00 0.07 0.06 1012.4
20260505120049 0 0.0 0.0 0.00 0.07 0.06 1011.9
20260505114537 0 0.0 0.0 0.01 0.07 0.06 1011.1
20260505113033 0 0.0 0.0 0.01 0.07 0.06 1010.5
20260505111526 0 0.0 0.0 0.06 0.07 0.06 1010.5
20260505101504 63 9 4.0 19.0 0.00 0.01 0.00 85 1008.6
20260505100057 64 63 6.0 15.0 0.00 0.01 0.00 84 1008.2
20260505094551 66 58 7.0 11.0 0.00 0.01 0.00 83 1008.1
20260505093048 66 186 0.0 0.0 0.00 0.01 0.00 84 1007.5
20260505091550 66 186 0.0 0.0 0.00 0.01 0.00 83 1007.3
20260505090047 67 186 0.0 0.0 0.00 0.01 0.00 82 1007.5
20260505084544 68 187 0.0 2.0 0.00 0.01 0.00 81 1007.4
20260505083033 68 190 0.0 0.0 0.00 0.01 0.00 80 1007.3
20260505081531 68 154 2.0 4.0 0.00 0.01 0.00 79 1007.5
20260505080027 68 179 1.0 4.0 0.00 0.01 0.00 79 1007.6
20260505074525 69 77 4.0 8.0 0.00 0.01 0.00 79 1008.0
20260505073032 69 245 2.0 10.0 0.00 0.01 0.00 79 1007.1
20260505071518 69 289 1.0 8.0 0.00 0.01 0.00 78 1007.3
20260505070026 69 191 0.0 11.0 0.00 0.01 0.00 78 1007.1
20260505064512 70 227 1.0 8.0 0.00 0.01 0.00 77 1006.8
20260505063011 70 239 2.0 13.0 0.00 0.01 0.00 77 1006.9
20260505061506 70 169 4.0 9.0 0.00 0.01 0.00 76 1006.7
20260505060003 70 196 2.0 10.0 0.00 0.01 0.00 76 1006.8
20260505054611 71 268 4.0 11.0 0.00 0.01 0.00 75 1006.7
20260505053100 71 285 3.0 11.0 0.00 0.01 0.00 75 1006.4
20260505051552 71 59 4.0 13.0 0.00 0.01 0.00 74 1006.3
20260505041551 72 177 3.0 14.0 0.00 0.01 0.01 74 1006.4
20260505040048 72 182 2.0 8.0 0.00 0.01 0.01 73 1006.7
20260505034536 72 155 2.0 11.0 0.00 0.01 0.01 73 1006.8
20260505033035 73 203 2.0 9.0 0.00 0.01 0.01 73 1006.7
20260505031540 73 265 1.0 8.0 0.00 0.01 0.01 72 1006.7
20260505030029 73 261 2.0 8.0 0.00 0.01 0.01 72 1006.6
20260505024527 73 154 1.0 6.0 0.00 0.01 0.01 72 1006.2
20260505023025 73 175 1.0 7.0 0.00 0.01 0.01 72 1005.9
20260505021524 73 280 0.0 4.0 0.00 0.01 0.01 71 1005.5
20260505020021 74 216 1.0 6.0 0.00 0.01 0.01 70 1005.3
20260505014526 74 172 1.0 5.0 0.00 0.01 0.01 69 1005.1
20260505013017 75 306 1.0 6.0 0.00 0.01 0.01 68 1005.0
20260505011514 76 216 1.0 7.0 0.00 0.01 0.01 68 1004.8
20260505010012 77 335 1.0 6.0 0.00 0.01 0.01 67 1004.7
20260505004510 77 242 1.0 7.0 0.00 0.01 0.01 67 1004.6
20260505003007 79 200 2.0 8.0 0.00 0.01 0.01 65 1004.3
20260505001505 80 147 3.0 10.0 0.00 0.01 0.01 63 1004.3
20260505000006 80 273 1.0 10.0 0.00 0.01 0.01 63 1004.4
20260504234559 80 258 2.0 12.0 0.00 0.01 0.01 63 1004.3
20260504233108 81 249 3.0 13.0 0.00 0.01 0.01 62 1004.5
20260504231555 81 277 5.0 16.0 0.00 0.01 0.01 61 1004.6